| time (UTC) | temp C | wind direction | speed KPH | gust KPH | rain 1hr cm | rain 24hr cm | rain mn cm | humidity % | barometer mb |
| 20260507061027 | 8 | 98 | 6.4 | 22.5 | 0.00 | 0.18 | 0.15 | 88 | 1015.7 |
| 20260507060525 | 8 | 150 | 8.0 | 22.5 | 0.00 | 0.18 | 0.15 | 88 | 1015.6 |
| 20260507060048 | 8 | 106 | 9.7 | 22.5 | 0.00 | 0.18 | 0.15 | 87 | 1015.7 |
| 20260507055526 | 8 | 105 | 9.7 | 24.1 | 0.00 | 0.18 | 0.15 | 87 | 1015.6 |
| 20260507055029 | 8 | 129 | 8.0 | 24.1 | 0.00 | 0.15 | 0.13 | 86 | 1015.6 |
| 20260507054539 | 9 | 233 | 6.4 | 22.5 | 0.00 | 0.15 | 0.13 | 85 | 1015.5 |
| 20260507054025 | 9 | 130 | 9.7 | 22.5 | 0.00 | 0.15 | 0.13 | 85 | 1015.5 |
| 20260507053524 | 9 | 90 | 8.0 | 22.5 | 0.00 | 0.15 | 0.13 | 85 | 1015.6 |
| 20260507053044 | 9 | 201 | 4.8 | 22.5 | 0.00 | 0.15 | 0.13 | 85 | 1015.6 |
| 20260507052522 | 9 | 104 | 11.3 | 22.5 | 0.00 | 0.15 | 0.13 | 84 | 1015.6 |
| 20260507052025 | 9 | 129 | 3.2 | 19.3 | 0.00 | 0.15 | 0.13 | 85 | 1015.6 |
| 20260507051540 | 9 | 107 | 4.8 | 16.1 | 0.00 | 0.15 | 0.13 | 85 | 1015.6 |
| 20260507051024 | 9 | 101 | 4.8 | 16.1 | 0.00 | 0.15 | 0.13 | 85 | 1015.6 |
| 20260507050527 | 9 | 147 | 6.4 | 17.7 | 0.00 | 0.15 | 0.13 | 84 | 1015.7 |
| 20260507050038 | 9 | 108 | 8.0 | 17.7 | 0.00 | 0.15 | 0.13 | 84 | 1015.6 |
| 20260507045526 | 9 | 83 | 6.4 | 25.7 | 0.00 | 0.15 | 0.13 | 83 | 1015.3 |
| 20260507045026 | 9 | 136 | 9.7 | 25.7 | 0.00 | 0.15 | 0.13 | 83 | 1015.4 |
| 20260507044539 | 9 | 113 | 9.7 | 25.7 | 0.00 | 0.15 | 0.13 | 82 | 1015.4 |
| 20260507044025 | 10 | 115 | 9.7 | 24.1 | 0.00 | 0.15 | 0.13 | 83 | 1015.3 |
| 20260507043525 | 9 | 143 | 6.4 | 20.9 | 0.00 | 0.15 | 0.13 | 83 | 1015.2 |
| 20260507043038 | 9 | 108 | 9.7 | 20.9 | 0.00 | 0.15 | 0.13 | 83 | 1015.1 |
| 20260507042526 | 9 | 154 | 9.7 | 20.9 | 0.00 | 0.15 | 0.13 | 84 | 1015.0 |
| 20260507042027 | 9 | 97 | 4.8 | 12.9 | 0.00 | 0.15 | 0.13 | 85 | 1015.0 |
| 20260507041548 | 9 | 0 | 0.0 | 9.7 | 0.00 | 0.15 | 0.13 | 86 | 1015.0 |
| 20260507041026 | 9 | 141 | 3.2 | 11.3 | 0.00 | 0.15 | 0.13 | 85 | 1015.0 |
| 20260507040526 | 9 | 129 | 4.8 | 12.9 | 0.00 | 0.15 | 0.13 | 86 | 1014.7 |
| 20260507040043 | 9 | 129 | 4.8 | 12.9 | 0.00 | 0.15 | 0.13 | 86 | 1014.5 |
| 20260507035526 | 9 | 136 | 4.8 | 16.1 | 0.00 | 0.15 | 0.13 | 86 | 1014.6 |
| 20260507035026 | 9 | 122 | 6.4 | 19.3 | 0.00 | 0.15 | 0.13 | 86 | 1014.6 |
| 20260507034539 | 9 | 125 | 6.4 | 19.3 | 0.03 | 0.15 | 0.13 | 85 | 1014.3 |
| 20260507034025 | 9 | 134 | 6.4 | 17.7 | 0.05 | 0.15 | 0.13 | 85 | 1014.0 |
| 20260507033526 | 9 | 99 | 8.0 | 19.3 | 0.08 | 0.15 | 0.13 | 86 | 1014.1 |
| 20260507033039 | 9 | 64 | 9.7 | 22.5 | 0.08 | 0.15 | 0.13 | 86 | 1014.1 |
| 20260507032525 | 9 | 91 | 8.0 | 22.5 | 0.10 | 0.15 | 0.13 | 85 | 1014.2 |
| 20260507032025 | 9 | 84 | 8.0 | 20.9 | 0.10 | 0.15 | 0.13 | 86 | 1014.3 |
| 20260507031537 | 9 | 63 | 9.7 | 24.1 | 0.10 | 0.15 | 0.13 | 86 | 1014.2 |
| 20260507031022 | 9 | 103 | 4.8 | 24.1 | 0.10 | 0.15 | 0.13 | 86 | 1014.3 |
| 20260507030526 | 9 | 133 | 9.7 | 24.1 | 0.10 | 0.15 | 0.13 | 87 | 1014.3 |
| 20260507030038 | 9 | 101 | 9.7 | 22.5 | 0.10 | 0.15 | 0.13 | 87 | 1014.2 |
| 20260507025522 | 9 | 95 | 8.0 | 24.1 | 0.08 | 0.13 | 0.10 | 87 | 1014.2 |
| 20260507025025 | 9 | 56 | 8.0 | 24.1 | 0.08 | 0.13 | 0.10 | 87 | 1014.4 |
| 20260507024542 | 9 | 122 | 4.8 | 14.5 | 0.08 | 0.10 | 0.08 | 87 | 1014.5 |
| 20260507024025 | 9 | 145 | 4.8 | 16.1 | 0.05 | 0.08 | 0.08 | 86 | 1014.7 |
| 20260507023525 | 9 | 92 | 6.4 | 16.1 | 0.00 | 0.05 | 0.03 | 85 | 1014.9 |
| 20260507023047 | 10 | 79 | 8.0 | 16.1 | 0.00 | 0.05 | 0.03 | 83 | 1015.0 |
| 20260507022525 | 10 | 94 | 3.2 | 16.1 | 0.00 | 0.03 | 0.00 | 82 | 1015.1 |
| 20260507022026 | 10 | 103 | 0.0 | 16.1 | 0.00 | 0.03 | 0.00 | 82 | 1015.1 |
| 20260507021543 | 10 | 102 | 4.8 | 16.1 | 0.00 | 0.03 | 0.00 | 82 | 1014.9 |
| 20260507021026 | 10 | 63 | 6.4 | 16.1 | 0.00 | 0.03 | 0.00 | 82 | 1014.7 |
| 20260507020526 | 9 | 83 | 6.4 | 16.1 | 0.00 | 0.03 | 0.00 | 83 | 1014.7 |
| 20260507020230 | 9 | 69 | 8.0 | 17.7 | 0.00 | 0.03 | 0.00 | 84 | 1014.6 |
| 20260507015526 | 9 | 49 | 6.4 | 17.7 | 0.00 | 0.03 | 0.00 | 84 | 1014.7 |
| 20260507015026 | 9 | 123 | 8.0 | 17.7 | 0.00 | 0.03 | 0.00 | 85 | 1014.8 |
| 20260507014546 | 9 | 150 | 3.2 | 8.0 | 0.00 | 0.03 | 0.00 | 86 | 1014.6 |
| 20260507014026 | 9 | 98 | 1.6 | 9.7 | 0.00 | 0.03 | 0.00 | 86 | 1014.7 |
| 20260507013526 | 9 | 54 | 4.8 | 12.9 | 0.00 | 0.03 | 0.00 | 87 | 1014.7 |
| 20260507013049 | 9 | 83 | 4.8 | 12.9 | 0.00 | 0.03 | 0.00 | 87 | 1014.9 |
| 20260507012527 | 9 | 11 | 1.6 | 12.9 | 0.00 | 0.03 | 0.00 | 87 | 1014.8 |
| 20260507012026 | 9 | 120 | 1.6 | 12.9 | 0.00 | 0.03 | 0.00 | 87 | 1014.7 |
| 20260507011538 | 9 | 80 | 4.8 | 9.7 | 0.00 | 0.03 | 0.00 | 87 | 1014.7 |
| 20260507011025 | 9 | 70 | 1.6 | 9.7 | 0.00 | 0.03 | 0.00 | 87 | 1014.8 |
| 20260507010526 | 9 | 101 | 1.6 | 14.5 | 0.00 | 0.03 | 0.00 | 86 | 1014.9 |
| 20260507010039 | 9 | 59 | 3.2 | 14.5 | 0.00 | 0.03 | 0.00 | 86 | 1014.9 |
| 20260507005526 | 10 | 69 | 1.6 | 20.9 | 0.00 | 0.03 | 0.00 | 85 | 1014.9 |
| 20260507005026 | 10 | 69 | 4.8 | 20.9 | 0.00 | 0.03 | 0.00 | 84 | 1015.0 |
| 20260507004548 | 10 | 115 | 8.0 | 20.9 | 0.00 | 0.03 | 0.00 | 83 | 1014.9 |
| 20260507004025 | 10 | 81 | 6.4 | 22.5 | 0.00 | 0.03 | 0.00 | 83 | 1014.9 |
| 20260507003523 | 10 | 120 | 6.4 | 22.5 | 0.00 | 0.03 | 0.00 | 82 | 1015.1 |
| 20260507003044 | 10 | 116 | 8.0 | 22.5 | 0.00 | 0.03 | 0.00 | 82 | 1015.1 |
| 20260507002523 | 10 | 110 | 4.8 | 20.9 | 0.00 | 0.03 | 0.00 | 83 | 1015.2 |
| 20260507002026 | 10 | 111 | 6.4 | 20.9 | 0.00 | 0.03 | 0.00 | 83 | 1015.2 |
| 20260507001545 | 10 | 84 | 8.0 | 20.9 | 0.00 | 0.03 | 0.00 | 82 | 1015.1 |
| 20260507001022 | 10 | 96 | 8.0 | 25.7 | 0.00 | 0.03 | 0.00 | 81 | 1015.3 |
| 20260507000525 | 11 | 99 | 12.9 | 25.7 | 0.00 | 0.03 | 0.00 | 79 | 1015.3 |
| 20260507000038 | 11 | 143 | 8.0 | 24.1 | 0.00 | 0.03 | 0.00 | 79 | 1015.2 |
| 20260506235528 | 11 | 76 | 9.7 | 22.5 | 0.00 | 0.03 | 0.00 | 78 | 1015.1 |
| 20260506235023 | 11 | 105 | 6.4 | 20.9 | 0.00 | 0.03 | 0.00 | 78 | 1015.2 |
| 20260506234543 | 11 | 63 | 9.7 | 20.9 | 0.00 | 0.03 | 0.00 | 77 | 1015.2 |
| 20260506234025 | 11 | 97 | 4.8 | 14.5 | 0.00 | 0.03 | 0.00 | 78 | 1015.2 |
| 20260506233526 | 11 | 141 | 3.2 | 14.5 | 0.00 | 0.03 | 0.00 | 78 | 1015.2 |
| 20260506233046 | 11 | 120 | 6.4 | 20.9 | 0.00 | 0.03 | 0.00 | 79 | 1015.4 |
| 20260506232525 | 11 | 122 | 8.0 | 20.9 | 0.00 | 0.03 | 0.00 | 79 | 1015.3 |
| 20260506232026 | 11 | 102 | 6.4 | 17.7 | 0.00 | 0.03 | 0.00 | 80 | 1015.4 |
| 20260506231539 | 11 | 57 | 8.0 | 17.7 | 0.00 | 0.03 | 0.00 | 79 | 1015.4 |
| 20260506231026 | 11 | 134 | 8.0 | 17.7 | 0.00 | 0.03 | 0.00 | 80 | 1015.5 |
| 20260506230526 | 11 | 65 | 6.4 | 14.5 | 0.00 | 0.03 | 0.00 | 81 | 1015.5 |
| 20260506230046 | 11 | 113 | 6.4 | 14.5 | 0.00 | 0.03 | 0.00 | 82 | 1015.5 |
| 20260506225525 | 11 | 57 | 3.2 | 16.1 | 0.00 | 0.03 | 0.00 | 82 | 1015.5 |
| 20260506225027 | 11 | 106 | 3.2 | 16.1 | 0.00 | 0.03 | 0.00 | 81 | 1015.4 |
| 20260506224544 | 11 | 68 | 4.8 | 14.5 | 0.00 | 0.03 | 0.00 | 80 | 1015.4 |
| 20260506224029 | 11 | 72 | 3.2 | 11.3 | 0.00 | 0.03 | 0.00 | 79 | 1015.5 |
| 20260506223523 | 11 | 0 | 3.2 | 11.3 | 0.00 | 0.00 | 0.00 | 76 | 1015.5 |
| 20260506223043 | 12 | 131 | 4.8 | 11.3 | 0.00 | 0.00 | 0.00 | 74 | 1015.9 |
| 20260506222522 | 12 | 114 | 3.2 | 8.0 | 0.00 | 0.00 | 0.00 | 74 | 1015.7 |
| 20260506222028 | 12 | 86 | 0.0 | 6.4 | 0.00 | 0.00 | 0.00 | 75 | 1015.9 |
| 20260506221539 | 12 | 0 | 1.6 | 9.7 | 0.00 | 0.00 | 0.00 | 76 | 1015.8 |
| 20260506221025 | 12 | 0 | 3.2 | 12.9 | 0.00 | 0.00 | 0.00 | 75 | 1015.8 |
| 20260506220526 | 12 | 98 | 3.2 | 12.9 | 0.00 | 0.00 | 0.00 | 74 | 1015.7 |
| 20260506220041 | 12 | 115 | 4.8 | 12.9 | 0.00 | 0.00 | 0.00 | 73 | 1015.7 |
| 20260506215525 | 12 | 96 | 3.2 | 9.7 | 0.00 | 0.00 | 0.00 | 74 | 1015.6 |
| 20260506215029 | 12 | 101 | 3.2 | 9.7 | 0.00 | 0.00 | 0.00 | 74 | 1015.8 |
| 20260506214542 | 12 | 0 | 1.6 | 9.7 | 0.00 | 0.00 | 0.00 | 73 | 1015.7 |
| 20260506214023 | 12 | 90 | 1.6 | 17.7 | 0.00 | 0.00 | 0.00 | 72 | 1015.7 |
| 20260506213526 | 12 | 109 | 0.0 | 17.7 | 0.00 | 0.00 | 0.00 | 72 | 1015.7 |
| 20260506213051 | 12 | 122 | 6.4 | 17.7 | 0.00 | 0.00 | 0.00 | 71 | 1015.7 |
| 20260506212525 | 12 | 152 | 4.8 | 11.3 | 0.00 | 0.00 | 0.00 | 72 | 1015.6 |
| 20260506212026 | 12 | 0 | 1.6 | 9.7 | 0.00 | 0.00 | 0.00 | 73 | 1015.6 |
| 20260506211537 | 12 | 0 | 1.6 | 9.7 | 0.00 | 0.00 | 0.00 | 73 | 1015.5 |
| 20260506211026 | 12 | 0 | 3.2 | 9.7 | 0.00 | 0.00 | 0.00 | 74 | 1015.6 |
| 20260506210523 | 12 | 0 | 3.2 | 9.7 | 0.00 | 0.00 | 0.00 | 72 | 1015.5 |
| 20260506210042 | 12 | 94 | 3.2 | 14.5 | 0.00 | 0.00 | 0.00 | 71 | 1015.5 |
| 20260506205528 | 12 | 119 | 1.6 | 14.5 | 0.00 | 0.00 | 0.00 | 72 | 1015.6 |
| 20260506205026 | 12 | 0 | 0.0 | 8.0 | 0.00 | 0.00 | 0.00 | 73 | 1015.4 |
| 20260506204541 | 12 | 105 | 0.0 | 8.0 | 0.00 | 0.00 | 0.00 | 73 | 1015.6 |
| 20260506204025 | 12 | 0 | 0.0 | 3.2 | 0.00 | 0.00 | 0.00 | 74 | 1015.6 |
| 20260506203526 | 12 | 0 | 0.0 | 6.4 | 0.00 | 0.00 | 0.00 | 74 | 1015.6 |
| 20260506203040 | 12 | 0 | 1.6 | 6.4 | 0.00 | 0.00 | 0.00 | 74 | 1015.7 |
| 20260506202526 | 12 | 268 | 1.6 | 8.0 | 0.00 | 0.00 | 0.00 | 76 | 1015.7 |
| 20260506202026 | 12 | 0 | 0.0 | 9.7 | 0.00 | 0.00 | 0.00 | 77 | 1015.6 |
| 20260506201541 | 12 | 103 | 3.2 | 11.3 | 0.00 | 0.00 | 0.00 | 77 | 1015.6 |
| 20260506201025 | 12 | 103 | 3.2 | 14.5 | 0.00 | 0.00 | 0.00 | 78 | 1015.4 |
| 20260506200525 | 12 | 103 | 6.4 | 16.1 | 0.00 | 0.00 | 0.00 | 79 | 1015.5 |
| 20260506200038 | 12 | 107 | 6.4 | 17.7 | 0.00 | 0.00 | 0.00 | 79 | 1015.6 |
| 20260506195526 | 12 | 89 | 6.4 | 17.7 | 0.00 | 0.00 | 0.00 | 79 | 1015.6 |
| 20260506195026 | 12 | 146 | 8.0 | 17.7 | 0.00 | 0.00 | 0.00 | 79 | 1015.5 |
| 20260506194539 | 12 | 64 | 8.0 | 17.7 | 0.00 | 0.00 | 0.00 | 78 | 1015.6 |
| 20260506194027 | 12 | 74 | 8.0 | 16.1 | 0.00 | 0.00 | 0.00 | 77 | 1015.6 |
| 20260506193528 | 12 | 60 | 4.8 | 11.3 | 0.00 | 0.00 | 0.00 | 77 | 1015.6 |
| 20260506193040 | 12 | 143 | 4.8 | 16.1 | 0.00 | 0.00 | 0.00 | 77 | 1015.6 |
| 20260506192525 | 12 | 127 | 3.2 | 16.1 | 0.00 | 0.00 | 0.00 | 78 | 1015.6 |
| 20260506192026 | 12 | 159 | 1.6 | 11.3 | 0.00 | 0.00 | 0.00 | 78 | 1015.5 |
| 20260506191541 | 12 | 117 | 1.6 | 8.0 | 0.00 | 0.00 | 0.00 | 79 | 1015.6 |
| 20260506191026 | 12 | 0 | 0.0 | 1.6 | 0.00 | 0.00 | 0.00 | 80 | 1015.6 |
| 20260506190522 | 11 | 0 | 0.0 | 4.8 | 0.00 | 0.00 | 0.00 | 81 | 1015.4 |
| 20260506190038 | 11 | 0 | 0.0 | 11.3 | 0.00 | 0.00 | 0.00 | 82 | 1015.2 |
| 20260506185528 | 11 | 0 | 0.0 | 11.3 | 0.00 | 0.00 | 0.00 | 82 | 1015.2 |
| 20260506185026 | 11 | 118 | 3.2 | 14.5 | 0.00 | 0.00 | 0.00 | 83 | 1015.1 |
| 20260506184551 | 11 | 99 | 4.8 | 14.5 | 0.00 | 0.00 | 0.00 | 83 | 1015.0 |
| 20260506184026 | 11 | 117 | 4.8 | 14.5 | 0.00 | 0.00 | 0.00 | 83 | 1014.9 |
| 20260506183528 | 11 | 61 | 6.4 | 14.5 | 0.00 | 0.00 | 0.00 | 84 | 1015.0 |
| 20260506183051 | 11 | 93 | 1.6 | 14.5 | 0.00 | 0.00 | 0.00 | 84 | 1015.0 |
| 20260506182525 | 11 | 81 | 3.2 | 14.5 | 0.00 | 0.00 | 0.00 | 84 | 1015.0 |
| 20260506182026 | 11 | 83 | 0.0 | 6.4 | 0.00 | 0.00 | 0.00 | 84 | 1015.0 |
| 20260506181608 | 11 | 0 | 0.0 | 6.4 | 0.00 | 0.00 | 0.00 | 84 | 1015.0 |
| 20260506181030 | 11 | 0 | 0.0 | 6.4 | 0.00 | 0.00 | 0.00 | 84 | 1015.0 |
| 20260506180526 | 11 | 0 | 0.0 | 6.4 | 0.00 | 0.00 | 0.00 | 84 | 1015.0 |
| 20260506180047 | 11 | 104 | 0.0 | 6.4 | 0.00 | 0.00 | 0.00 | 84 | 1014.9 |
| 20260506175525 | 11 | 0 | 0.0 | 9.7 | 0.00 | 0.00 | 0.00 | 83 | 1014.9 |
| 20260506175025 | 11 | 114 | 3.2 | 12.9 | 0.00 | 0.00 | 0.00 | 82 | 1015.0 |
| 20260506174541 | 12 | 113 | 3.2 | 14.5 | 0.00 | 0.00 | 0.00 | 80 | 1015.0 |
| 20260506174027 | 12 | 85 | 4.8 | 17.7 | 0.00 | 0.00 | 0.00 | 79 | 1015.0 |
| 20260506173528 | 12 | 105 | 4.8 | 17.7 | 0.00 | 0.00 | 0.00 | 79 | 1015.1 |
| 20260506173055 | 12 | 103 | 8.0 | 20.9 | 0.00 | 0.00 | 0.00 | 79 | 1014.9 |
| 20260506172526 | 12 | 108 | 6.4 | 20.9 | 0.00 | 0.00 | 0.00 | 80 | 1015.0 |
| 20260506172026 | 12 | 115 | 6.4 | 17.7 | 0.00 | 0.00 | 0.00 | 80 | 1014.9 |
| 20260506171540 | 12 | 113 | 6.4 | 16.1 | 0.00 | 0.00 | 0.00 | 81 | 1014.9 |
| 20260506171026 | 12 | 108 | 8.0 | 16.1 | 0.00 | 0.00 | 0.00 | 82 | 1015.0 |
| 20260506170525 | 11 | 108 | 6.4 | 14.5 | 0.00 | 0.00 | 0.00 | 83 | 1015.0 |
| 20260506170041 | 11 | 134 | 4.8 | 14.5 | 0.00 | 0.00 | 0.00 | 84 | 1015.1 |
| 20260506165526 | 11 | 105 | 3.2 | 14.5 | 0.00 | 0.00 | 0.00 | 84 | 1015.0 |
| 20260506165028 | 11 | 72 | 4.8 | 16.1 | 0.00 | 0.00 | 0.00 | 85 | 1015.0 |
| 20260506164539 | 11 | 120 | 8.0 | 16.1 | 0.00 | 0.00 | 0.00 | 85 | 1014.9 |
| 20260506164026 | 11 | 86 | 8.0 | 16.1 | 0.00 | 0.00 | 0.00 | 85 | 1014.8 |
| 20260506163525 | 12 | 99 | 4.8 | 14.5 | 0.00 | 0.00 | 0.00 | 84 | 1014.9 |
| 20260506163040 | 12 | 86 | 4.8 | 14.5 | 0.00 | 0.00 | 0.00 | 83 | 1014.7 |
| 20260506162522 | 12 | 128 | 6.4 | 16.1 | 0.00 | 0.00 | 0.00 | 82 | 1014.9 |
| 20260506162028 | 12 | 72 | 4.8 | 17.7 | 0.00 | 0.00 | 0.00 | 82 | 1014.7 |
| 20260506161548 | 12 | 217 | 4.8 | 20.9 | 0.00 | 0.00 | 0.00 | 82 | 1014.9 |
| 20260506161026 | 12 | 95 | 8.0 | 22.5 | 0.00 | 0.00 | 0.00 | 82 | 1014.9 |
| 20260506160526 | 12 | 112 | 8.0 | 29.0 | 0.00 | 0.00 | 0.00 | 82 | 1014.9 |
| 20260506160051 | 12 | 137 | 12.9 | 30.6 | 0.00 | 0.00 | 0.00 | 82 | 1014.7 |
| 20260506155529 | 12 | 65 | 11.3 | 30.6 | 0.00 | 0.00 | 0.00 | 82 | 1014.7 |
| 20260506155026 | 12 | 106 | 9.7 | 30.6 | 0.00 | 0.00 | 0.00 | 82 | 1015.0 |
| 20260506154541 | 12 | 91 | 11.3 | 22.5 | 0.00 | 0.00 | 0.00 | 81 | 1015.1 |
| 20260506154027 | 12 | 117 | 9.7 | 22.5 | 0.00 | 0.00 | 0.00 | 81 | 1015.1 |
| 20260506153525 | 12 | 114 | 8.0 | 17.7 | 0.00 | 0.00 | 0.00 | 80 | 1015.0 |
| 20260506153059 | 12 | 86 | 6.4 | 20.9 | 0.00 | 0.00 | 0.00 | 80 | 1015.1 |
| 20260506152526 | 12 | 124 | 8.0 | 20.9 | 0.00 | 0.00 | 0.00 | 80 | 1015.2 |
| 20260506152026 | 12 | 89 | 9.7 | 19.3 | 0.00 | 0.00 | 0.00 | 81 | 1015.3 |
| 20260506151543 | 12 | 130 | 11.3 | 19.3 | 0.00 | 0.00 | 0.00 | 81 | 1015.3 |
| 20260506151026 | 12 | 110 | 6.4 | 17.7 | 0.00 | 0.00 | 0.00 | 82 | 1015.4 |
| 20260506150526 | 12 | 79 | 8.0 | 19.3 | 0.00 | 0.00 | 0.00 | 82 | 1015.3 |
| 20260506150046 | 12 | 50 | 6.4 | 19.3 | 0.00 | 0.00 | 0.00 | 83 | 1015.3 |
| 20260506145522 | 12 | 213 | 6.4 | 20.9 | 0.00 | 0.08 | 0.00 | 83 | 1015.2 |
| 20260506145027 | 12 | 81 | 6.4 | 20.9 | 0.00 | 0.08 | 0.00 | 83 | 1015.2 |
| 20260506144549 | 11 | 75 | 6.4 | 17.7 | 0.00 | 0.08 | 0.00 | 84 | 1015.2 |
| 20260506144026 | 11 | 98 | 6.4 | 19.3 | 0.00 | 0.08 | 0.00 | 84 | 1015.2 |
| 20260506143526 | 11 | 86 | 8.0 | 22.5 | 0.00 | 0.08 | 0.00 | 85 | 1015.4 |
| 20260506143039 | 11 | 101 | 6.4 | 22.5 | 0.00 | 0.08 | 0.00 | 85 | 1015.4 |
| 20260506142525 | 11 | 117 | 6.4 | 19.3 | 0.00 | 0.08 | 0.00 | 86 | 1015.4 |
| 20260506142025 | 11 | 122 | 6.4 | 19.3 | 0.00 | 0.08 | 0.00 | 86 | 1015.2 |
| 20260506141541 | 11 | 170 | 8.0 | 17.7 | 0.00 | 0.08 | 0.00 | 86 | 1015.2 |
| 20260506141026 | 11 | 117 | 6.4 | 17.7 | 0.00 | 0.08 | 0.00 | 86 | 1015.2 |
| 20260506140526 | 11 | 88 | 8.0 | 24.1 | 0.00 | 0.08 | 0.00 | 85 | 1015.2 |
| 20260506140039 | 11 | 130 | 8.0 | 24.1 | 0.00 | 0.08 | 0.00 | 84 | 1015.3 |
| 20260506135526 | 11 | 114 | 8.0 | 25.7 | 0.00 | 0.08 | 0.00 | 83 | 1015.3 |
| 20260506135026 | 12 | 100 | 9.7 | 27.4 | 0.00 | 0.08 | 0.00 | 80 | 1015.2 |
| 20260506134539 | 12 | 79 | 9.7 | 27.4 | 0.00 | 0.05 | 0.00 | 76 | 1015.2 |
| 20260506134026 | 12 | 95 | 12.9 | 27.4 | 0.00 | 0.05 | 0.00 | 75 | 1015.1 |
| 20260506133526 | 12 | 88 | 11.3 | 25.7 | 0.00 | 0.05 | 0.00 | 73 | 1015.0 |
| 20260506133042 | 12 | 40 | 9.7 | 25.7 | 0.00 | 0.05 | 0.00 | 70 | 1014.9 |
| 20260506132528 | 13 | 160 | 6.4 | 25.7 | 0.00 | 0.05 | 0.00 | 68 | 1015.1 |
| 20260506132026 | 13 | 143 | 12.9 | 33.8 | 0.00 | 0.05 | 0.00 | 66 | 1015.1 |
| 20260506131541 | 13 | 120 | 9.7 | 33.8 | 0.00 | 0.05 | 0.00 | 63 | 1015.2 |
| 20260506131026 | 15 | 100 | 14.5 | 32.2 | 0.00 | 0.05 | 0.00 | 59 | 1015.2 |
| 20260506130526 | 15 | 63 | 9.7 | 25.7 | 0.00 | 0.05 | 0.00 | 55 | 1015.1 |
| 20260506130040 | 16 | 103 | 8.0 | 17.7 | 0.00 | 0.05 | 0.00 | 57 | 1015.1 |
| 20260506125525 | 16 | 98 | 4.8 | 16.1 | 0.00 | 0.05 | 0.00 | 57 | 1015.2 |
| 20260506125028 | 16 | 130 | 4.8 | 19.3 | 0.00 | 0.05 | 0.00 | 57 | 1015.2 |
| 20260506124538 | 16 | 113 | 6.4 | 22.5 | 0.00 | 0.05 | 0.00 | 57 | 1015.2 |
| 20260506124026 | 16 | 132 | 9.7 | 22.5 | 0.00 | 0.05 | 0.00 | 55 | 1015.1 |
| 20260506123522 | 17 | 160 | 8.0 | 22.5 | 0.00 | 0.05 | 0.00 | 55 | 1015.1 |
| 20260506123046 | 17 | 116 | 6.4 | 22.5 | 0.00 | 0.05 | 0.00 | 55 | 1015.1 |
| 20260506122526 | 17 | 174 | 9.7 | 22.5 | 0.00 | 0.05 | 0.00 | 53 | 1015.0 |
| 20260506122026 | 18 | 126 | 9.7 | 22.5 | 0.00 | 0.05 | 0.00 | 53 | 1015.1 |
| 20260506121542 | 18 | 122 | 8.0 | 25.7 | 0.00 | 0.05 | 0.00 | 52 | 1015.0 |
| 20260506121026 | 18 | 205 | 8.0 | 25.7 | 0.00 | 0.05 | 0.00 | 51 | 1015.0 |
| 20260506120530 | 18 | 148 | 6.4 | 29.0 | 0.00 | 0.05 | 0.00 | 53 | 1014.9 |
| 20260506120041 | 18 | 84 | 11.3 | 29.0 | 0.00 | 0.05 | 0.00 | 49 | 1015.1 |
| 20260506115529 | 19 | 98 | 11.3 | 25.7 | 0.00 | 0.05 | 0.00 | 49 | 1015.0 |
| 20260506115026 | 19 | 103 | 11.3 | 22.5 | 0.00 | 0.05 | 0.00 | 50 | 1015.1 |
| 20260506114538 | 18 | 105 | 8.0 | 22.5 | 0.00 | 0.05 | 0.00 | 50 | 1015.0 |
| 20260506114026 | 18 | 56 | 6.4 | 19.3 | 0.00 | 0.05 | 0.00 | 52 | 1015.1 |
| 20260506113525 | 18 | 112 | 6.4 | 19.3 | 0.00 | 0.05 | 0.00 | 50 | 1015.1 |
| 20260506113042 | 18 | 205 | 9.7 | 17.7 | 0.00 | 0.05 | 0.00 | 49 | 1015.1 |
| 20260506112527 | 18 | 137 | 8.0 | 17.7 | 0.00 | 0.05 | 0.00 | 48 | 1015.1 |
| 20260506112026 | 18 | 129 | 6.4 | 17.7 | 0.00 | 0.05 | 0.00 | 47 | 1015.1 |
| 20260506111600 | 18 | 160 | 9.7 | 29.0 | 0.00 | 0.05 | 0.00 | 44 | 1015.1 |
| 20260506111027 | 18 | 125 | 9.7 | 29.0 | 0.00 | 0.05 | 0.00 | 43 | 1015.2 |
| 20260506110526 | 18 | 139 | 8.0 | 20.9 | 0.00 | 0.05 | 0.00 | 42 | 1015.2 |
| 20260506110041 | 18 | 104 | 6.4 | 29.0 | 0.00 | 0.05 | 0.00 | 40 | 1015.3 |
| 20260506105525 | 18 | 176 | 6.4 | 29.0 | 0.00 | 0.05 | 0.00 | 41 | 1015.2 |
| 20260506105028 | 18 | 113 | 9.7 | 29.0 | 0.00 | 0.05 | 0.00 | 39 | 1015.2 |
| 20260506104539 | 18 | 148 | 8.0 | 17.7 | 0.00 | 0.05 | 0.00 | 40 | 1015.2 |
| 20260506104026 | 18 | 134 | 8.0 | 17.7 | 0.00 | 0.05 | 0.00 | 40 | 1015.3 |
| 20260506103527 | 19 | 194 | 9.7 | 24.1 | 0.00 | 0.05 | 0.00 | 40 | 1015.4 |
| 20260506103050 | 19 | 167 | 9.7 | 25.7 | 0.00 | 0.05 | 0.00 | 44 | 1015.3 |
| 20260506102525 | 19 | 100 | 9.7 | 25.7 | 0.00 | 0.05 | 0.00 | 42 | 1015.3 |
| 20260506102026 | 19 | 134 | 9.7 | 24.1 | 0.00 | 0.05 | 0.00 | 42 | 1015.2 |
| 20260506101538 | 19 | 146 | 8.0 | 24.1 | 0.00 | 0.05 | 0.00 | 45 | 1015.3 |
| 20260506101029 | 19 | 209 | 9.7 | 24.1 | 0.00 | 0.05 | 0.00 | 44 | 1015.4 |
| 20260506100526 | 19 | 110 | 6.4 | 24.1 | 0.00 | 0.05 | 0.00 | 45 | 1015.5 |
| 20260506100039 | 19 | 105 | 11.3 | 24.1 | 0.00 | 0.05 | 0.00 | 44 | 1015.5 |
| 20260506095526 | 19 | 196 | 6.4 | 25.7 | 0.00 | 0.05 | 0.00 | 45 | 1015.4 |
| 20260506095027 | 18 | 151 | 12.9 | 25.7 | 0.00 | 0.05 | 0.00 | 46 | 1015.5 |
| 20260506094542 | 19 | 148 | 6.4 | 19.3 | 0.00 | 0.05 | 0.00 | 47 | 1015.6 |
| 20260506094026 | 19 | 168 | 8.0 | 20.9 | 0.00 | 0.05 | 0.00 | 46 | 1015.6 |
| 20260506093528 | 18 | 164 | 9.7 | 20.9 | 0.00 | 0.05 | 0.00 | 49 | 1015.5 |
| 20260506093039 | 18 | 127 | 9.7 | 22.5 | 0.00 | 0.05 | 0.00 | 48 | 1015.6 |
| 20260506092526 | 18 | 127 | 11.3 | 22.5 | 0.00 | 0.05 | 0.00 | 48 | 1015.5 |
| 20260506092027 | 18 | 113 | 8.0 | 22.5 | 0.00 | 0.05 | 0.00 | 51 | 1015.3 |
| 20260506091546 | 18 | 139 | 9.7 | 24.1 | 0.00 | 0.05 | 0.00 | 53 | 1015.5 |
| 20260506091026 | 18 | 195 | 6.4 | 24.1 | 0.00 | 0.05 | 0.00 | 53 | 1015.6 |
| 20260506090526 | 17 | 112 | 8.0 | 24.1 | 0.00 | 0.05 | 0.00 | 55 | 1015.6 |
| 20260506090039 | 17 | 129 | 9.7 | 24.1 | 0.00 | 0.05 | 0.00 | 55 | 1015.6 |
| 20260506085528 | 17 | 68 | 9.7 | 24.1 | 0.00 | 0.05 | 0.00 | 55 | 1015.4 |
| 20260506085026 | 17 | 108 | 8.0 | 20.9 | 0.00 | 0.05 | 0.00 | 56 | 1015.4 |
| 20260506084545 | 17 | 150 | 4.8 | 20.9 | 0.00 | 0.05 | 0.00 | 57 | 1015.3 |
| 20260506084026 | 17 | 183 | 9.7 | 20.9 | 0.00 | 0.05 | 0.00 | 58 | 1015.5 |
| 20260506083529 | 16 | 105 | 9.7 | 22.5 | 0.00 | 0.05 | 0.00 | 57 | 1015.4 |
| 20260506083043 | 16 | 121 | 11.3 | 22.5 | 0.00 | 0.05 | 0.00 | 57 | 1015.4 |
| 20260506082526 | 16 | 160 | 9.7 | 19.3 | 0.00 | 0.05 | 0.00 | 58 | 1015.3 |
| 20260506082026 | 16 | 148 | 8.0 | 20.9 | 0.00 | 0.05 | 0.00 | 58 | 1015.3 |
| 20260506081540 | 16 | 154 | 8.0 | 20.9 | 0.00 | 0.05 | 0.00 | 57 | 1015.4 |
| 20260506081029 | 16 | 113 | 11.3 | 20.9 | 0.00 | 0.05 | 0.00 | 55 | 1015.4 |
| 20260506080526 | 16 | 65 | 8.0 | 20.9 | 0.00 | 0.05 | 0.00 | 56 | 1015.3 |
| 20260506073528 | 16 | 127 | 8.0 | 20.9 | 0.00 | 0.05 | 0.00 | 53 | 1015.4 |
| 20260506073038 | 16 | 115 | 6.4 | 20.9 | 0.00 | 0.05 | 0.00 | 53 | 1015.4 |
| 20260506072529 | 16 | 132 | 8.0 | 20.9 | 0.00 | 0.05 | 0.00 | 52 | 1015.3 |
| 20260506072026 | 16 | 89 | 6.4 | 19.3 | 0.00 | 0.05 | 0.00 | 53 | 1015.5 |
| 20260506071544 | 16 | 154 | 3.2 | 19.3 | 0.00 | 0.05 | 0.00 | 54 | 1015.5 |
| 20260506071026 | 16 | 139 | 6.4 | 16.1 | 0.00 | 0.05 | 0.00 | 53 | 1015.5 |
| 20260506070528 | 16 | 139 | 4.8 | 16.1 | 0.00 | 0.05 | 0.00 | 53 | 1015.4 |
| 20260506062027 | 15 | 155 | 4.8 | 12.9 | 0.00 | 0.05 | 0.00 | 53 | 1015.7 |
| 20260506061543 | 14 | 141 | 1.6 | 8.0 | 0.00 | 0.05 | 0.00 | 56 | 1015.7 |